Time,TemperatureF,DewpointF,PressureIn,WindDirection,WindDirectionDegrees,WindSpeedMPH,WindSpeedGustMPH,Humidity,HourlyPrecipIn,Conditions,Clouds,dailyrainin,SoftwareType,DateUTC
2013-04-06 00:22:00,33.0,32.0,-100.00,WSW,254,4.0,5.0,97,0.04,,,0.46,,2013-04-06 06:22:00,
2013-04-06 00:32:00,33.0,32.0,-100.00,WSW,254,4.0,5.0,97,0.04,,,0.46,,2013-04-06 06:32:00,
2013-04-06 00:42:00,33.0,32.0,-100.00,WSW,254,4.0,5.0,97,0.04,,,0.46,,2013-04-06 06:42:00,
2013-04-06 00:52:00,33.0,32.0,-100.00,WSW,254,4.0,5.0,97,0.04,,,0.46,,2013-04-06 06:52:00,
2013-04-06 01:12:00,32.0,31.0,-100.00,NNW,343,2.0,2.0,97,0.12,,,-99.99,,2013-04-06 07:12:00,
2013-04-06 01:22:00,32.0,31.0,-100.00,NNW,343,2.0,2.0,97,0.12,,,-99.99,,2013-04-06 07:22:00,
2013-04-06 01:32:00,32.0,31.0,-100.00,NNW,343,2.0,2.0,97,0.12,,,-99.99,,2013-04-06 07:32:00,
2013-04-06 01:42:00,32.0,31.0,-100.00,NNW,343,2.0,2.0,97,0.12,,,-99.99,,2013-04-06 07:42:00,
2013-04-06 01:52:00,32.0,31.0,-100.00,NNW,343,2.0,2.0,97,0.12,,,-99.99,,2013-04-06 07:52:00,
2013-04-06 02:22:00,32.0,31.0,-100.00,NE,40,1.0,1.0,98,0.00,,,0.58,,2013-04-06 08:22:00,
2013-04-06 02:32:00,32.0,31.0,-100.00,NE,40,1.0,1.0,98,0.00,,,0.58,,2013-04-06 08:32:00,
2013-04-06 02:42:00,32.0,31.0,-100.00,NE,40,1.0,1.0,98,0.00,,,0.58,,2013-04-06 08:42:00,
2013-04-06 02:52:00,32.0,31.0,-100.00,NE,40,1.0,1.0,98,0.00,,,0.58,,2013-04-06 08:52:00,
2013-04-06 03:22:00,30.0,29.0,-100.00,ENE,67,0.0,1.0,98,0.00,,,0.58,,2013-04-06 09:22:00,
2013-04-06 03:32:00,30.0,29.0,-100.00,ENE,67,0.0,1.0,98,0.00,,,0.58,,2013-04-06 09:32:00,
2013-04-06 03:42:00,30.0,29.0,-100.00,ENE,67,0.0,1.0,98,0.00,,,0.58,,2013-04-06 09:42:00,
2013-04-06 03:52:00,30.0,29.0,-100.00,ENE,67,0.0,1.0,98,0.00,,,0.58,,2013-04-06 09:52:00,
2013-04-06 04:12:00,28.0,28.0,-100.00,NE,52,0.0,0.0,98,0.00,,,0.58,,2013-04-06 10:12:00,
2013-04-06 04:22:00,28.0,28.0,-100.00,NE,52,0.0,0.0,98,0.00,,,0.58,,2013-04-06 10:22:00,
2013-04-06 04:32:00,28.0,28.0,-100.00,NE,52,0.0,0.0,98,0.00,,,0.58,,2013-04-06 10:32:00,
2013-04-06 04:42:00,28.0,28.0,-100.00,NE,52,0.0,0.0,98,0.00,,,0.58,,2013-04-06 10:42:00,
2013-04-06 04:52:00,28.0,28.0,-100.00,NE,52,0.0,0.0,98,0.00,,,0.58,,2013-04-06 10:52:00,
2013-04-06 05:22:00,30.0,29.0,-100.00,North,349,1.0,1.0,98,0.00,,,0.53,,2013-04-06 11:22:00,
2013-04-06 05:32:00,30.0,29.0,-100.00,North,349,1.0,1.0,98,0.00,,,0.53,,2013-04-06 11:32:00,
2013-04-06 05:42:00,30.0,29.0,-100.00,North,349,1.0,1.0,98,0.00,,,0.53,,2013-04-06 11:42:00,
2013-04-06 05:52:00,30.0,29.0,-100.00,North,349,1.0,1.0,98,0.00,,,0.53,,2013-04-06 11:52:00,
2013-04-06 06:12:00,28.0,27.0,-100.00,ESE,106,0.0,1.0,98,0.00,,,0.51,,2013-04-06 12:12:00,
2013-04-06 06:22:00,28.0,27.0,-100.00,ESE,106,0.0,1.0,98,0.00,,,0.51,,2013-04-06 12:22:00,
2013-04-06 06:32:00,28.0,27.0,-100.00,ESE,106,0.0,1.0,98,0.00,,,0.51,,2013-04-06 12:32:00,
2013-04-06 06:42:00,28.0,27.0,-100.00,ESE,106,0.0,1.0,98,0.00,,,0.51,,2013-04-06 12:42:00,
2013-04-06 06:52:00,28.0,27.0,-100.00,ESE,106,0.0,1.0,98,0.00,,,0.51,,2013-04-06 12:52:00,
2013-04-06 07:12:00,27.0,26.0,-100.00,SE,133,1.0,1.0,98,0.00,,,0.48,,2013-04-06 13:12:00,
2013-04-06 07:23:00,27.0,26.0,-100.00,SE,133,1.0,1.0,98,0.00,,,0.48,,2013-04-06 13:23:00,
2013-04-06 07:32:00,27.0,26.0,-100.00,SE,133,1.0,1.0,98,0.00,,,0.48,,2013-04-06 13:32:00,
2013-04-06 07:42:00,27.0,26.0,-100.00,SE,133,1.0,1.0,98,0.00,,,0.48,,2013-04-06 13:42:00,
2013-04-06 07:52:00,27.0,26.0,-100.00,SE,133,1.0,1.0,98,0.00,,,0.48,,2013-04-06 13:52:00,
2013-04-06 08:22:00,29.0,28.0,-100.00,East,80,0.0,0.0,98,0.00,,,0.48,,2013-04-06 14:22:00,
2013-04-06 08:32:00,29.0,28.0,-100.00,East,80,0.0,0.0,98,0.00,,,0.48,,2013-04-06 14:32:00,
2013-04-06 08:42:00,29.0,28.0,-100.00,East,80,0.0,0.0,98,0.00,,,0.48,,2013-04-06 14:42:00,
2013-04-06 08:52:00,29.0,28.0,-100.00,East,80,0.0,0.0,98,0.00,,,0.48,,2013-04-06 14:52:00,
2013-04-06 09:22:00,31.0,31.0,-100.00,NW,321,0.0,0.0,98,0.00,,,0.48,,2013-04-06 15:22:00,
2013-04-06 09:33:00,31.0,31.0,-100.00,NW,321,0.0,0.0,98,0.00,,,0.48,,2013-04-06 15:33:00,
2013-04-06 09:42:00,31.0,31.0,-100.00,NW,321,0.0,0.0,98,0.00,,,0.48,,2013-04-06 15:42:00,
2013-04-06 09:52:00,31.0,31.0,-100.00,NW,321,0.0,0.0,98,0.00,,,0.48,,2013-04-06 15:52:00,
2013-04-06 10:17:00,33.0,33.0,-100.00,WNW,282,1.0,1.0,98,0.00,,,0.48,,2013-04-06 16:17:00,
2013-04-06 10:23:00,33.0,33.0,-100.00,WNW,282,1.0,1.0,98,0.00,,,0.48,,2013-04-06 16:23:00,
2013-04-06 10:32:00,33.0,33.0,-100.00,WNW,282,1.0,1.0,98,0.00,,,0.48,,2013-04-06 16:32:00,
2013-04-06 10:42:00,33.0,33.0,-100.00,WNW,282,1.0,1.0,98,0.00,,,0.48,,2013-04-06 16:42:00,
2013-04-06 10:52:00,33.0,33.0,-100.00,WNW,282,1.0,1.0,98,0.00,,,0.48,,2013-04-06 16:52:00,
2013-04-06 11:22:00,36.0,33.0,-100.00,SSW,204,4.0,5.0,89,0.00,,,0.48,,2013-04-06 17:22:00,
2013-04-06 11:32:00,36.0,33.0,-100.00,SSW,204,4.0,5.0,89,0.00,,,0.48,,2013-04-06 17:32:00,
2013-04-06 11:42:00,36.0,33.0,-100.00,SSW,204,4.0,5.0,89,0.00,,,0.48,,2013-04-06 17:42:00,
2013-04-06 11:52:00,36.0,33.0,-100.00,SSW,204,4.0,5.0,89,0.00,,,0.48,,2013-04-06 17:52:00,
2013-04-06 12:23:00,35.0,33.0,-100.00,South,177,5.0,6.0,91,0.04,,,0.52,,2013-04-06 18:23:00,
2013-04-06 12:32:00,35.0,33.0,-100.00,South,177,5.0,6.0,91,0.04,,,0.52,,2013-04-06 18:32:00,
2013-04-06 12:42:00,35.0,33.0,-100.00,South,177,5.0,6.0,91,0.04,,,0.52,,2013-04-06 18:42:00,
2013-04-06 12:52:00,35.0,33.0,-100.00,South,177,5.0,6.0,91,0.04,,,0.52,,2013-04-06 18:52:00,
2013-04-06 13:22:00,36.0,33.0,-100.00,SSE,166,4.0,5.0,90,0.03,,,0.55,,2013-04-06 19:22:00,
2013-04-06 13:32:00,36.0,33.0,-100.00,SSE,166,4.0,5.0,90,0.03,,,0.55,,2013-04-06 19:32:00,
2013-04-06 13:42:00,36.0,33.0,-100.00,SSE,166,4.0,5.0,90,0.03,,,0.55,,2013-04-06 19:42:00,
2013-04-06 13:52:00,36.0,33.0,-100.00,SSE,166,4.0,5.0,90,0.03,,,0.55,,2013-04-06 19:52:00,
2013-04-06 14:22:00,38.0,34.0,-100.00,SW,217,2.0,6.0,86,0.01,,,-99.99,,2013-04-06 20:22:00,
2013-04-06 14:32:00,38.0,34.0,-100.00,SW,217,2.0,6.0,86,0.01,,,-99.99,,2013-04-06 20:32:00,
2013-04-06 14:42:00,38.0,34.0,-100.00,SW,217,2.0,6.0,86,0.01,,,-99.99,,2013-04-06 20:42:00,
2013-04-06 14:52:00,38.0,34.0,-100.00,SW,217,2.0,6.0,86,0.01,,,-99.99,,2013-04-06 20:52:00,
2013-04-06 16:22:00,41.0,36.0,-100.00,SW,217,1.0,2.0,82,-99.99,,,0.35,,2013-04-06 22:22:00,
2013-04-06 16:34:00,41.0,36.0,-100.00,SW,217,1.0,2.0,82,-99.99,,,0.35,,2013-04-06 22:34:00,
2013-04-06 16:43:00,41.0,36.0,-100.00,SW,217,1.0,2.0,82,-99.99,,,0.35,,2013-04-06 22:43:00,
2013-04-06 16:52:00,41.0,36.0,-100.00,SW,217,1.0,2.0,82,-99.99,,,0.35,,2013-04-06 22:52:00,
2013-04-06 17:13:00,42.0,38.0,-100.00,South,186,2.0,4.0,85,0.00,,,0.35,,2013-04-06 23:13:00,
2013-04-06 17:22:00,42.0,38.0,-100.00,South,186,2.0,4.0,85,0.00,,,0.35,,2013-04-06 23:22:00,
2013-04-06 17:33:00,42.0,38.0,-100.00,South,186,2.0,4.0,85,0.00,,,0.35,,2013-04-06 23:33:00,
2013-04-06 17:42:00,42.0,38.0,-100.00,South,186,2.0,4.0,85,0.00,,,0.35,,2013-04-06 23:42:00,
2013-04-06 17:52:00,42.0,38.0,-100.00,South,186,2.0,4.0,85,0.00,,,0.35,,2013-04-06 23:52:00,
2013-04-06 18:22:00,40.0,37.0,-100.00,SSW,201,5.0,9.0,90,0.00,,,0.35,,2013-04-07 00:22:00,
2013-04-06 18:32:00,40.0,37.0,-100.00,SSW,201,5.0,9.0,90,0.00,,,0.35,,2013-04-07 00:32:00,
2013-04-06 18:42:00,40.0,37.0,-100.00,SSW,201,5.0,9.0,90,0.00,,,0.35,,2013-04-07 00:42:00,
2013-04-06 18:52:00,40.0,37.0,-100.00,SSW,201,5.0,9.0,90,0.00,,,0.35,,2013-04-07 00:52:00,
2013-04-06 19:22:00,42.0,38.0,-100.00,West,270,1.0,2.0,84,0.00,,,0.35,,2013-04-07 01:22:00,
2013-04-06 19:32:00,42.0,38.0,-100.00,West,270,1.0,2.0,84,0.00,,,0.35,,2013-04-07 01:32:00,
2013-04-06 19:42:00,42.0,38.0,-100.00,West,270,1.0,2.0,84,0.00,,,0.35,,2013-04-07 01:42:00,
2013-04-06 19:52:00,42.0,38.0,-100.00,West,270,1.0,2.0,84,0.00,,,0.35,,2013-04-07 01:52:00,
2013-04-06 20:12:00,38.0,37.0,-100.00,NE,36,0.0,1.0,94,0.01,,,0.36,,2013-04-07 02:12:00,
2013-04-06 20:23:00,38.0,37.0,-100.00,NE,36,0.0,1.0,94,0.01,,,0.36,,2013-04-07 02:23:00,
2013-04-06 20:32:00,38.0,37.0,-100.00,NE,36,0.0,1.0,94,0.01,,,0.36,,2013-04-07 02:32:00,
2013-04-06 20:42:00,38.0,37.0,-100.00,NE,36,0.0,1.0,94,0.01,,,0.36,,2013-04-07 02:42:00,
2013-04-06 20:51:00,38.0,37.0,-100.00,NE,36,0.0,1.0,94,0.01,,,0.36,,2013-04-07 02:51:00,
2013-04-06 21:22:00,36.0,35.0,-100.00,NNE,19,0.0,1.0,95,0.00,,,0.36,,2013-04-07 03:22:00,
2013-04-06 21:33:00,36.0,35.0,-100.00,NNE,19,0.0,1.0,95,0.00,,,0.36,,2013-04-07 03:33:00,
2013-04-06 21:43:00,36.0,35.0,-100.00,NNE,19,0.0,1.0,95,0.00,,,0.36,,2013-04-07 03:43:00,
2013-04-06 21:52:00,36.0,35.0,-100.00,NNE,19,0.0,1.0,95,0.00,,,0.36,,2013-04-07 03:52:00,
2013-04-06 22:23:00,34.0,33.0,-100.00,ESE,108,1.0,2.0,97,0.00,,,0.35,,2013-04-07 04:23:00,
2013-04-06 22:32:00,34.0,33.0,-100.00,ESE,108,1.0,2.0,97,0.00,,,0.35,,2013-04-07 04:32:00,
2013-04-06 22:43:00,34.0,33.0,-100.00,ESE,108,1.0,2.0,97,0.00,,,0.35,,2013-04-07 04:43:00,
2013-04-06 22:52:00,34.0,33.0,-100.00,ESE,108,1.0,2.0,97,0.00,,,0.35,,2013-04-07 04:52:00,
2013-04-06 23:12:00,35.0,34.0,-100.00,South,190,5.0,8.0,95,0.00,,,0.27,,2013-04-07 05:12:00,
2013-04-06 23:22:00,35.0,34.0,-100.00,South,190,5.0,8.0,95,0.00,,,0.27,,2013-04-07 05:22:00,
2013-04-06 23:32:00,35.0,34.0,-100.00,South,190,5.0,8.0,95,0.00,,,0.27,,2013-04-07 05:32:00,
2013-04-06 23:42:00,35.0,34.0,-100.00,South,190,5.0,8.0,95,0.00,,,0.27,,2013-04-07 05:42:00,
2013-04-06 23:52:00,35.0,34.0,-100.00,South,190,5.0,8.0,95,0.00,,,0.27,,2013-04-07 05:52:00,